Aérodrome :
LOGIN :

S'inscrire | Disclaimer

   EN    FR    IT 

 










Légende :    VFR   VFR Marginal   IFR   IFR Intensif   IFR Très Intensif
Visi : 
Plafond : 
>= 8 km
>= 3000ft
5 à 8 km
1000 à 3000 ft
1500m à 5 km
500 à 1000 ft
800 à 1500m
200 à 500 ft
< 800m
< 200 ft
Symboles :   Orages  Brouillard  Fortes neiges  Fortes précipitations  Vent > 20 kt
SIGMETs :   Divers  Orages  Givrage  Turbulence  Onde Orograph.  Cendres Volcan.







- Altitude de l'aérodrome : 1906 ft
- Code IATA : INN


LOWI - Innsbruck

DERNIER METAR :
  • 160420Z AUTO 27002KT 9999 NSC M04/M06 Q1032

METARs EXPIRÉS :
  • 160350Z AUTO VRB01KT 9999 NSC M04/M06 Q1032
  • 160320Z AUTO VRB02KT 9999 NSC M04/M06 Q1032
  • 160250Z AUTO VRB01KT 9999 NSC M04/M05 Q1032
  • 160220Z AUTO VRB02KT 9999 NSC M03/M05 Q1032
  • 160150Z AUTO VRB02KT 9999 NSC M04/M05 Q1032

TAF TAF LOWI
Valide du 16 à 00h jusqu'au 17 à 00h UTC


152315Z 1600/1624 VRB02KT CAVOK TX12/1614Z TNM03/1606Z
TEMPO 1612/1617 08007KT
Pas de NOTAMs connus pour ce terrain.



MET'MAP, la Météo Aéronautique d'un coup d'oeil ! - Copyright ORBIFLY Décembre 2007 - Disclaimer

ORBIFLY MET'MAP TEAM :

Programmation & Développement : Alexandra Zaïnal
Conception & Développement : Baudouin d'Aumeries
Co-Programmation & Développement : Marc-Olivier Méhu
Soutien technique & logistique : Manuel Goepfert

Contact : metmap@orbifly.com




SOURCES & CREDITS :

   NOAA